Orbital Elements at Epoch 2459000.5 (2020-May-31.0) TDB
Reference: JPL 17 (heliocentric ecliptic J2000)
Element | Value | Uncertainty (1-sigma) | Units |
e | .1540936557188282 | 4.0904e-08 | |
a | 2.192075843584407 | 1.2625e-08 | au |
q | 1.854290863233552 | 9.091e-08 | au |
i | 2.979182563067635 | 4.7304e-06 | deg |
node | 225.3687505972491 | 0.00010143 | deg |
peri | 183.8786290231977 | 0.00010365 | deg |
M | 340.4376942751203 | 2.364e-05 | deg |
tp | 2459064.916827517822 (2020-Aug-03.41682752) | 7.8214e-05 | TDB |
period | 1185.446042637103 3.25 | 1.0241e-05 2.804e-08 | d yr |
n | .3036831597996281 | 2.6234e-09 | deg/d |
Q | 2.529860823935262 | 1.457e-08 | au |
|
| | Orbit Determination Parameters
Additional Information
|